RESURS P2

Last updated on Wed Apr 24 2024 00:02:24 GMT+0000 (Coordinated Universal Time)

1 40360U 14087A 24114.58740854 .00041638 00000+0 59942-3 0 9999 2 40360 97.1522 200.9351 0007736 136.2888 223.8981 15.55901365521034

Satellite not in orbit

RESURS P2